Year,Month,Day,Hour,Minute,Value (Times are PST for temperature in C)
2018,10,20,00,00,9.30
2018,10,20,00,01,9.30
2018,10,20,00,02,9.30
2018,10,20,00,03,9.30
2018,10,20,00,04,9.20
2018,10,20,00,05,9.20
2018,10,20,00,06,9.20
2018,10,20,00,07,9.20
2018,10,20,00,08,9.20
2018,10,20,00,09,9.20
2018,10,20,00,10,9.10
2018,10,20,00,11,9.10
2018,10,20,00,12,9.00
2018,10,20,00,13,9.00
2018,10,20,00,14,8.90
2018,10,20,00,15,8.90
2018,10,20,00,16,8.80
2018,10,20,00,17,8.80
2018,10,20,00,18,8.80
2018,10,20,00,19,8.70
2018,10,20,00,20,8.80
2018,10,20,00,21,8.80
2018,10,20,00,22,8.80
2018,10,20,00,23,8.90
2018,10,20,00,24,8.90
2018,10,20,00,25,9.00
2018,10,20,00,26,9.00
2018,10,20,00,27,9.10
2018,10,20,00,28,9.10
2018,10,20,00,29,9.10
2018,10,20,00,30,9.20
2018,10,20,00,31,9.20
2018,10,20,00,32,9.20
2018,10,20,00,33,9.10
2018,10,20,00,34,9.10
2018,10,20,00,35,9.10
2018,10,20,00,36,9.10
2018,10,20,00,37,9.10
2018,10,20,00,38,9.10
2018,10,20,00,39,9.10
2018,10,20,00,40,9.10
2018,10,20,00,41,9.10
2018,10,20,00,42,9.10
2018,10,20,00,43,9.10
2018,10,20,00,44,9.10
2018,10,20,00,45,9.10
2018,10,20,00,46,9.10
2018,10,20,00,47,9.10
2018,10,20,00,48,9.10
2018,10,20,00,49,9.10
2018,10,20,00,50,9.10
2018,10,20,00,51,9.10
2018,10,20,00,52,9.10
2018,10,20,00,53,9.10
2018,10,20,00,54,9.10
2018,10,20,00,55,9.10
2018,10,20,00,56,9.10
2018,10,20,00,57,9.10
2018,10,20,00,58,9.00
2018,10,20,00,59,9.10
2018,10,20,01,00,9.10
2018,10,20,01,01,9.10
2018,10,20,01,02,9.10
2018,10,20,01,03,9.10
2018,10,20,01,04,9.10
2018,10,20,01,05,9.10
2018,10,20,01,06,9.10
2018,10,20,01,07,9.10
2018,10,20,01,08,9.10
2018,10,20,01,09,9.10
2018,10,20,01,10,9.10
2018,10,20,01,11,9.10
2018,10,20,01,12,9.00
2018,10,20,01,13,9.00
2018,10,20,01,14,9.00
2018,10,20,01,15,9.00
2018,10,20,01,16,9.00
2018,10,20,01,17,8.90
2018,10,20,01,18,8.90
2018,10,20,01,19,8.90
2018,10,20,01,20,8.90
2018,10,20,01,21,8.90
2018,10,20,01,22,8.90
2018,10,20,01,23,8.90
2018,10,20,01,24,8.80
2018,10,20,01,25,8.80
2018,10,20,01,26,8.80
2018,10,20,01,27,8.80
2018,10,20,01,28,8.80
2018,10,20,01,29,8.70
2018,10,20,01,30,8.70
2018,10,20,01,31,8.70
2018,10,20,01,32,8.60
2018,10,20,01,33,8.60
2018,10,20,01,34,8.60
2018,10,20,01,35,8.50
2018,10,20,01,36,8.50
2018,10,20,01,37,8.50
2018,10,20,01,38,8.40
2018,10,20,01,39,8.40
2018,10,20,01,40,8.40
2018,10,20,01,41,8.40
2018,10,20,01,42,8.40
2018,10,20,01,43,8.40
2018,10,20,01,44,8.40
2018,10,20,01,45,8.40
2018,10,20,01,46,8.40
2018,10,20,01,47,8.30
2018,10,20,01,48,8.30
2018,10,20,01,49,8.30
2018,10,20,01,50,8.30
2018,10,20,01,51,8.30
2018,10,20,01,52,8.20
2018,10,20,01,53,8.20
2018,10,20,01,54,8.20
2018,10,20,01,55,8.20
2018,10,20,01,56,8.20
2018,10,20,01,57,8.10
2018,10,20,01,58,8.10
2018,10,20,01,59,8.10
2018,10,20,02,00,8.10
2018,10,20,02,01,8.10
2018,10,20,02,02,8.10
2018,10,20,02,03,8.10
2018,10,20,02,04,8.10
2018,10,20,02,05,8.10
2018,10,20,02,06,8.10
2018,10,20,02,07,8.10
2018,10,20,02,08,8.10
2018,10,20,02,09,8.10
2018,10,20,02,10,8.10
2018,10,20,02,11,8.10
2018,10,20,02,12,8.10
2018,10,20,02,13,8.10
2018,10,20,02,14,8.10
2018,10,20,02,15,8.10
2018,10,20,02,16,8.10
2018,10,20,02,17,8.10
2018,10,20,02,18,8.10
2018,10,20,02,19,8.20
2018,10,20,02,20,8.20
2018,10,20,02,21,8.20
2018,10,20,02,22,8.20
2018,10,20,02,23,8.10
2018,10,20,02,24,8.10
2018,10,20,02,25,8.10
2018,10,20,02,26,8.10
2018,10,20,02,27,8.10
2018,10,20,02,28,8.10
2018,10,20,02,29,8.10
2018,10,20,02,30,8.10
2018,10,20,02,31,8.10
2018,10,20,02,32,8.00
2018,10,20,02,33,8.00
2018,10,20,02,34,8.00
2018,10,20,02,35,8.00
2018,10,20,02,36,8.00
2018,10,20,02,37,8.00
2018,10,20,02,38,7.90
2018,10,20,02,39,7.90
2018,10,20,02,40,7.90
2018,10,20,02,41,7.90
2018,10,20,02,42,7.90
2018,10,20,02,43,7.80
2018,10,20,02,44,7.80
2018,10,20,02,45,7.80
2018,10,20,02,46,7.80
2018,10,20,02,47,7.90
2018,10,20,02,48,7.90
2018,10,20,02,49,7.90
2018,10,20,02,50,8.00
2018,10,20,02,51,8.00
2018,10,20,02,52,8.00
2018,10,20,02,53,8.00
2018,10,20,02,54,8.00
2018,10,20,02,55,8.00
2018,10,20,02,56,8.00
2018,10,20,02,57,8.00
2018,10,20,02,58,8.00
2018,10,20,02,59,7.90
2018,10,20,03,00,7.90
2018,10,20,03,01,7.90
2018,10,20,03,02,7.90
2018,10,20,03,03,7.90
2018,10,20,03,04,7.90
2018,10,20,03,05,7.90
2018,10,20,03,06,7.90
2018,10,20,03,07,7.90
2018,10,20,03,08,7.90
2018,10,20,03,09,7.90
2018,10,20,03,10,7.90
2018,10,20,03,11,7.90
2018,10,20,03,12,7.90
2018,10,20,03,13,7.90
2018,10,20,03,14,7.90
2018,10,20,03,15,7.90
2018,10,20,03,16,7.80
2018,10,20,03,17,7.80
2018,10,20,03,18,7.80
2018,10,20,03,19,7.80
2018,10,20,03,20,7.80
2018,10,20,03,21,7.80
2018,10,20,03,22,7.70
2018,10,20,03,23,7.70
2018,10,20,03,24,7.70
2018,10,20,03,25,7.60
2018,10,20,03,26,7.60
2018,10,20,03,27,7.60
2018,10,20,03,28,7.50
2018,10,20,03,29,7.50
2018,10,20,03,30,7.40
2018,10,20,03,31,7.40
2018,10,20,03,32,7.40
2018,10,20,03,33,7.40
2018,10,20,03,34,7.40
2018,10,20,03,35,7.40
2018,10,20,03,36,7.40
2018,10,20,03,37,7.40
2018,10,20,03,38,7.40
2018,10,20,03,39,7.40
2018,10,20,03,40,7.40
2018,10,20,03,41,7.40
2018,10,20,03,42,7.30
2018,10,20,03,43,7.30
2018,10,20,03,44,7.30
2018,10,20,03,45,7.20
2018,10,20,03,46,7.20
2018,10,20,03,47,7.20
2018,10,20,03,48,7.20
2018,10,20,03,49,7.10
2018,10,20,03,50,7.10
2018,10,20,03,51,7.20
2018,10,20,03,52,7.20
2018,10,20,03,53,7.20
2018,10,20,03,54,7.20
2018,10,20,03,55,7.20
2018,10,20,03,56,7.30
2018,10,20,03,57,7.30
2018,10,20,03,58,7.40
2018,10,20,03,59,7.50
2018,10,20,04,00,7.60
2018,10,20,04,01,7.60
2018,10,20,04,02,7.70
2018,10,20,04,03,7.70
2018,10,20,04,04,7.70
2018,10,20,04,05,7.70
2018,10,20,04,06,7.70
2018,10,20,04,07,7.70
2018,10,20,04,08,7.70
2018,10,20,04,09,7.70
2018,10,20,04,10,7.70
2018,10,20,04,11,7.70
2018,10,20,04,12,7.70
2018,10,20,04,13,7.70
2018,10,20,04,14,7.70
2018,10,20,04,15,7.70
2018,10,20,04,16,7.70
2018,10,20,04,17,7.70
2018,10,20,04,18,7.60
2018,10,20,04,19,7.60
2018,10,20,04,20,7.60
2018,10,20,04,21,7.60
2018,10,20,04,22,7.50
2018,10,20,04,23,7.50
2018,10,20,04,24,7.50
2018,10,20,04,25,7.40
2018,10,20,04,26,7.40
2018,10,20,04,27,7.40
2018,10,20,04,28,7.40
2018,10,20,04,29,7.40
2018,10,20,04,30,7.40
2018,10,20,04,31,7.40
2018,10,20,04,32,7.40
2018,10,20,04,33,7.40
2018,10,20,04,34,7.40
2018,10,20,04,35,7.40
2018,10,20,04,36,7.40
2018,10,20,04,37,7.30
2018,10,20,04,38,7.30
2018,10,20,04,39,7.30
2018,10,20,04,40,7.30
2018,10,20,04,41,7.30
2018,10,20,04,42,7.30
2018,10,20,04,43,7.30
2018,10,20,04,44,7.30
2018,10,20,04,45,7.30
2018,10,20,04,46,7.30
2018,10,20,04,47,7.30
2018,10,20,04,48,7.30
2018,10,20,04,49,7.30
2018,10,20,04,50,7.30
2018,10,20,04,51,7.30
2018,10,20,04,52,7.30
2018,10,20,08,33,9.00
2018,10,20,08,34,9.00
2018,10,20,08,35,9.00
2018,10,20,08,36,9.00
2018,10,20,08,37,9.00
2018,10,20,08,38,9.00
2018,10,20,08,39,9.00
2018,10,20,08,40,9.00
2018,10,20,08,41,9.00
2018,10,20,08,42,9.00
2018,10,20,08,43,9.00
2018,10,20,08,44,9.10
2018,10,20,08,45,9.10
2018,10,20,08,46,9.10
2018,10,20,08,47,9.10
2018,10,20,08,48,9.10
2018,10,20,08,49,9.10
2018,10,20,08,50,9.10
2018,10,20,08,51,9.10
2018,10,20,08,52,9.10
2018,10,20,08,53,9.10
2018,10,20,08,54,9.10
2018,10,20,08,55,9.10
2018,10,20,08,56,9.10
2018,10,20,08,57,9.20
2018,10,20,08,58,9.20
2018,10,20,08,59,9.20
2018,10,20,09,00,9.20
2018,10,20,09,01,9.20
2018,10,20,09,02,9.20
2018,10,20,09,03,9.30
2018,10,20,09,04,9.30
2018,10,20,09,05,9.30
2018,10,20,09,06,9.30
2018,10,20,09,07,9.30
2018,10,20,09,08,9.30
2018,10,20,09,09,9.30
2018,10,20,09,10,9.30
2018,10,20,09,11,9.30
2018,10,20,09,12,9.30
2018,10,20,09,13,9.30
2018,10,20,09,14,9.30
2018,10,20,09,15,9.40
2018,10,20,09,16,9.40
2018,10,20,09,17,9.40
2018,10,20,09,18,9.40
2018,10,20,09,19,9.40
2018,10,20,09,20,9.50
2018,10,20,09,21,9.50
2018,10,20,09,22,9.50
2018,10,20,09,23,9.50
2018,10,20,09,24,9.50
2018,10,20,09,25,9.50
2018,10,20,09,26,9.60
2018,10,20,09,27,9.60
2018,10,20,09,28,9.60
2018,10,20,09,29,9.60
2018,10,20,09,30,9.60
2018,10,20,09,31,9.60
2018,10,20,09,32,9.60
2018,10,20,09,33,9.70
2018,10,20,09,34,9.70
2018,10,20,09,35,9.70
2018,10,20,09,36,9.70
2018,10,20,09,37,9.70
2018,10,20,09,38,9.70
2018,10,20,09,39,9.70
2018,10,20,09,40,9.80
2018,10,20,09,41,9.80
2018,10,20,09,42,9.80
2018,10,20,09,43,9.80
2018,10,20,09,44,9.80
2018,10,20,09,45,9.80
2018,10,20,09,46,9.80
2018,10,20,09,47,9.80
2018,10,20,09,48,9.80
2018,10,20,09,49,9.80
2018,10,20,09,50,9.80
2018,10,20,09,51,9.80
2018,10,20,09,52,9.80
2018,10,20,09,53,9.80
2018,10,20,09,54,9.80
2018,10,20,09,55,9.80
2018,10,20,09,56,9.80
2018,10,20,09,57,9.80
2018,10,20,09,58,9.90
2018,10,20,09,59,9.90
2018,10,20,10,00,9.90
2018,10,20,10,01,9.90
2018,10,20,10,02,9.90
2018,10,20,10,03,9.90
2018,10,20,10,04,9.90
2018,10,20,10,05,9.90
2018,10,20,10,06,10.00
2018,10,20,10,07,10.00
2018,10,20,10,08,10.00
2018,10,20,10,09,10.00
2018,10,20,10,10,10.00
2018,10,20,10,11,10.00
2018,10,20,10,12,10.00
2018,10,20,10,13,10.10
2018,10,20,10,14,10.10
2018,10,20,10,15,10.10
2018,10,20,10,16,10.10
2018,10,20,10,17,10.10
2018,10,20,10,18,10.10
2018,10,20,10,19,10.10
2018,10,20,10,20,10.10
2018,10,20,10,21,10.10
2018,10,20,10,22,10.10
2018,10,20,10,23,10.10
2018,10,20,10,24,10.10
2018,10,20,10,25,10.10
2018,10,20,10,26,10.10
2018,10,20,10,27,10.10
2018,10,20,10,28,10.10
2018,10,20,10,29,10.10
2018,10,20,10,30,10.10
2018,10,20,10,31,10.10
2018,10,20,10,32,10.10
2018,10,20,10,33,10.20
2018,10,20,10,34,10.20
2018,10,20,10,35,10.20
2018,10,20,10,36,10.30
2018,10,20,10,37,10.30
2018,10,20,10,38,10.30
2018,10,20,10,39,10.40
2018,10,20,10,40,10.40
2018,10,20,10,41,10.50
2018,10,20,10,42,10.50
2018,10,20,10,43,10.50
2018,10,20,10,44,10.50
2018,10,20,10,45,10.50
2018,10,20,10,46,10.50
2018,10,20,10,47,10.50
2018,10,20,10,48,10.60
2018,10,20,10,49,10.60
2018,10,20,10,50,10.60
2018,10,20,10,51,10.60
2018,10,20,10,52,10.50
2018,10,20,10,53,10.50
2018,10,20,10,54,10.50
2018,10,20,10,55,10.40
2018,10,20,10,56,10.40
2018,10,20,10,57,10.40
2018,10,20,10,58,10.40
2018,10,20,10,59,10.40
2018,10,20,11,00,10.40
2018,10,20,11,01,10.40
2018,10,20,11,02,10.50
2018,10,20,11,03,10.50
2018,10,20,11,04,10.50
2018,10,20,11,05,10.50
2018,10,20,11,06,10.50
2018,10,20,11,07,10.60
2018,10,20,11,08,10.50
2018,10,20,11,09,10.50
2018,10,20,11,10,10.50
2018,10,20,11,11,10.40
2018,10,20,11,12,10.40
2018,10,20,11,13,10.40
2018,10,20,11,14,10.40
2018,10,20,11,15,10.30
2018,10,20,11,16,10.30
2018,10,20,11,17,10.30
2018,10,20,11,18,10.30
2018,10,20,11,19,10.30
2018,10,20,11,20,10.30
2018,10,20,11,21,10.40
2018,10,20,11,22,10.40
2018,10,20,11,23,10.40
2018,10,20,11,24,10.50
2018,10,20,11,25,10.50
2018,10,20,11,26,10.60
2018,10,20,11,27,10.60
2018,10,20,11,28,10.60
2018,10,20,11,29,10.70
2018,10,20,11,30,10.70
2018,10,20,11,31,10.70
2018,10,20,11,32,10.70
2018,10,20,11,33,10.70
2018,10,20,11,34,10.70
2018,10,20,11,35,10.70
2018,10,20,11,36,10.70
2018,10,20,11,37,10.70
2018,10,20,11,38,10.70
2018,10,20,11,39,10.70
2018,10,20,11,40,10.70
2018,10,20,11,41,10.70
2018,10,20,11,42,10.70
2018,10,20,11,43,10.80
2018,10,20,11,44,10.80
2018,10,20,11,45,10.90
2018,10,20,11,46,10.90
2018,10,20,11,47,10.90
2018,10,20,11,48,11.00
2018,10,20,11,49,11.00
2018,10,20,11,50,11.10
2018,10,20,11,51,11.10
2018,10,20,11,52,11.10
2018,10,20,11,53,11.10
2018,10,20,11,54,11.20
2018,10,20,11,55,11.20
2018,10,20,11,56,11.20
2018,10,20,11,57,11.20
2018,10,20,11,58,11.20
2018,10,20,11,59,11.20
2018,10,20,12,00,11.20
2018,10,20,12,01,11.30
2018,10,20,12,02,11.30
2018,10,20,12,03,11.30
2018,10,20,12,04,11.30
2018,10,20,12,05,11.30
2018,10,20,12,06,11.30
2018,10,20,12,07,11.30
2018,10,20,12,08,11.40
2018,10,20,12,09,11.40
2018,10,20,12,10,11.40
2018,10,20,12,11,11.50
2018,10,20,12,12,11.50
2018,10,20,12,13,11.50
2018,10,20,12,14,11.60
2018,10,20,12,15,11.60
2018,10,20,12,16,11.70
2018,10,20,12,17,11.70
2018,10,20,12,18,11.70
2018,10,20,12,19,11.70
2018,10,20,12,20,11.70
2018,10,20,12,21,11.70
2018,10,20,12,22,11.70
2018,10,20,12,23,11.80
2018,10,20,12,24,11.80
2018,10,20,12,25,11.80
2018,10,20,12,26,11.80
2018,10,20,12,27,11.80
2018,10,20,12,28,11.80
2018,10,20,12,29,11.90
2018,10,20,12,30,11.90
2018,10,20,12,31,11.90
2018,10,20,12,32,11.90
2018,10,20,12,33,11.90
2018,10,20,12,34,12.00
2018,10,20,12,35,12.00
2018,10,20,12,36,12.00
2018,10,20,12,37,12.10
2018,10,20,12,38,12.10
2018,10,20,12,39,12.10
2018,10,20,12,40,12.20
2018,10,20,12,41,12.20
2018,10,20,12,42,12.30
2018,10,20,12,43,12.30
2018,10,20,12,44,12.30
2018,10,20,12,45,12.30
2018,10,20,12,46,12.40
2018,10,20,12,47,12.40
2018,10,20,12,48,12.40
2018,10,20,12,49,12.50
2018,10,20,12,50,12.50
2018,10,20,12,51,12.60
2018,10,20,12,52,12.60
2018,10,20,12,53,12.70
2018,10,20,12,54,12.70
2018,10,20,12,55,12.70
2018,10,20,12,56,12.80
2018,10,20,12,57,12.80
2018,10,20,12,58,12.90
2018,10,20,12,59,13.00
2018,10,20,13,00,13.10
2018,10,20,13,01,13.10
2018,10,20,13,02,13.20
2018,10,20,13,03,13.30
2018,10,20,13,04,13.30
2018,10,20,13,05,13.30
2018,10,20,13,06,13.40
2018,10,20,13,07,13.40
2018,10,20,13,08,13.40
2018,10,20,13,09,13.40
2018,10,20,13,10,13.40
2018,10,20,13,11,13.40
2018,10,20,13,12,13.40
2018,10,20,13,13,13.40
2018,10,20,13,14,13.40
2018,10,20,13,15,13.40
2018,10,20,13,16,13.40
2018,10,20,13,17,13.50
2018,10,20,13,18,13.50
2018,10,20,13,19,13.60
2018,10,20,13,20,13.60
2018,10,20,13,21,13.70
2018,10,20,13,22,13.70
2018,10,20,13,23,13.80
2018,10,20,13,24,13.80
2018,10,20,13,25,13.90
2018,10,20,13,26,13.90
2018,10,20,13,27,13.90
2018,10,20,13,28,13.90
2018,10,20,13,29,14.00
2018,10,20,13,30,14.00
2018,10,20,13,31,14.10
2018,10,20,13,32,14.10
2018,10,20,13,33,14.10
2018,10,20,13,34,14.20
2018,10,20,13,35,14.20
2018,10,20,13,36,14.20
2018,10,20,13,37,14.20
2018,10,20,13,38,14.20
2018,10,20,13,39,14.20
2018,10,20,13,40,14.20
2018,10,20,13,41,14.20
2018,10,20,13,42,14.20
2018,10,20,13,43,14.20
2018,10,20,13,44,14.20
2018,10,20,13,45,14.20
2018,10,20,13,46,14.20
2018,10,20,13,47,14.30
2018,10,20,13,48,14.30
2018,10,20,13,49,14.40
2018,10,20,13,50,14.50
2018,10,20,13,51,14.50
2018,10,20,13,52,14.60
2018,10,20,13,53,14.60
2018,10,20,13,54,14.70
2018,10,20,13,55,14.70
2018,10,20,13,56,14.70
2018,10,20,13,57,14.70
2018,10,20,13,58,14.70
2018,10,20,13,59,14.70
2018,10,20,14,00,14.60
2018,10,20,14,01,14.60
2018,10,20,14,02,14.50
2018,10,20,14,03,14.50
2018,10,20,14,04,14.50
2018,10,20,14,05,14.60
2018,10,20,14,06,14.60
2018,10,20,14,07,14.70
2018,10,20,14,08,14.70
2018,10,20,14,09,14.80
2018,10,20,14,10,14.80
2018,10,20,14,11,14.90
2018,10,20,14,12,14.80
2018,10,20,14,13,14.80
2018,10,20,14,14,14.80
2018,10,20,14,15,14.80
2018,10,20,14,16,14.80
2018,10,20,14,17,14.80
2018,10,20,14,18,14.80
2018,10,20,14,19,14.80
2018,10,20,14,20,14.80
2018,10,20,14,21,14.80
2018,10,20,14,22,14.70
2018,10,20,14,23,14.60
2018,10,20,14,24,14.60
2018,10,20,14,25,14.60
2018,10,20,14,26,14.60
2018,10,20,14,27,14.60
2018,10,20,14,28,14.60
2018,10,20,14,29,14.60
2018,10,20,14,30,14.60
2018,10,20,14,31,14.70
2018,10,20,14,32,14.70
2018,10,20,14,33,14.70
2018,10,20,14,34,14.70
2018,10,20,14,35,14.80
2018,10,20,14,36,14.80
2018,10,20,14,37,15.00
2018,10,20,14,38,15.00
2018,10,20,14,39,15.10
2018,10,20,14,40,15.20
2018,10,20,14,41,15.20
2018,10,20,14,42,15.20
2018,10,20,14,43,15.10
2018,10,20,14,44,15.10
2018,10,20,14,45,15.10
2018,10,20,14,46,15.10
2018,10,20,14,47,15.20
2018,10,20,14,48,15.20
2018,10,20,14,49,15.20
2018,10,20,14,50,15.20
2018,10,20,14,51,15.20
2018,10,20,14,52,15.20
2018,10,20,14,53,15.30
2018,10,20,14,54,15.30
2018,10,20,14,55,15.30
2018,10,20,14,56,15.30
2018,10,20,14,57,15.30
2018,10,20,14,58,15.40
2018,10,20,14,59,15.40
2018,10,20,15,00,15.30
2018,10,20,15,01,15.30
2018,10,20,15,02,15.30
2018,10,20,15,03,15.30
2018,10,20,15,04,15.30
2018,10,20,15,05,15.30
2018,10,20,15,06,15.40
2018,10,20,15,07,15.40
2018,10,20,15,08,15.50
2018,10,20,15,09,15.50
2018,10,20,15,10,15.40
2018,10,20,15,11,15.50
2018,10,20,15,12,15.50
2018,10,20,15,13,15.50
2018,10,20,15,14,15.60
2018,10,20,15,15,15.60
2018,10,20,15,16,15.60
2018,10,20,15,17,15.60
2018,10,20,15,18,15.60
2018,10,20,15,19,15.50
2018,10,20,15,20,15.50
2018,10,20,15,21,15.40
2018,10,20,15,22,15.40
2018,10,20,15,23,15.40
2018,10,20,15,24,15.40
2018,10,20,15,25,15.40
2018,10,20,15,26,15.40
2018,10,20,15,27,15.40
2018,10,20,15,28,15.40
2018,10,20,15,29,15.50
2018,10,20,15,30,15.50
2018,10,20,15,31,15.40
2018,10,20,15,32,15.40
2018,10,20,15,33,15.40
2018,10,20,15,34,15.40
2018,10,20,15,35,15.40
2018,10,20,15,36,15.40
2018,10,20,15,37,15.40
2018,10,20,15,38,15.40
2018,10,20,15,39,15.40
2018,10,20,15,40,15.40
2018,10,20,15,41,15.40
2018,10,20,15,42,15.30
2018,10,20,15,43,15.30
2018,10,20,15,44,15.30
2018,10,20,15,45,15.30
2018,10,20,15,46,15.20
2018,10,20,15,47,15.20
2018,10,20,15,48,15.20
2018,10,20,15,49,15.20
2018,10,20,15,50,15.20
2018,10,20,15,51,15.30
2018,10,20,15,52,15.30
2018,10,20,15,53,15.30
2018,10,20,15,54,15.20
2018,10,20,15,55,15.20
2018,10,20,15,56,15.20
2018,10,20,15,57,15.20
2018,10,20,15,58,15.10
2018,10,20,15,59,15.10
2018,10,20,16,00,15.10
2018,10,20,16,01,15.10
2018,10,20,16,02,15.10
2018,10,20,16,03,15.10
2018,10,20,16,04,15.10
2018,10,20,16,05,15.20
2018,10,20,16,06,15.20
2018,10,20,16,07,15.20
2018,10,20,16,08,15.20
2018,10,20,16,09,15.30
2018,10,20,16,10,15.30
2018,10,20,16,11,15.30
2018,10,20,16,12,15.40
2018,10,20,16,13,15.30
2018,10,20,16,14,15.30
2018,10,20,16,15,15.30
2018,10,20,16,16,15.30
2018,10,20,16,17,15.30
2018,10,20,16,18,15.30
2018,10,20,16,19,15.30
2018,10,20,16,20,15.30
2018,10,20,16,21,15.30
2018,10,20,16,22,15.30
2018,10,20,16,23,15.30
2018,10,20,16,24,15.30
2018,10,20,16,25,15.40
2018,10,20,16,26,15.40
2018,10,20,16,27,15.50
2018,10,20,16,28,15.50
2018,10,20,16,29,15.60
2018,10,20,16,30,15.60
2018,10,20,16,31,15.60
2018,10,20,16,32,15.60
2018,10,20,16,33,15.70
2018,10,20,16,34,15.60
2018,10,20,16,35,15.70
2018,10,20,16,36,15.70
2018,10,20,16,37,15.70
2018,10,20,16,38,15.60
2018,10,20,16,39,15.60
2018,10,20,16,40,15.50
2018,10,20,16,41,15.50
2018,10,20,16,42,15.50
2018,10,20,16,43,15.40
2018,10,20,16,44,15.40
2018,10,20,16,45,15.40
2018,10,20,16,46,15.30
2018,10,20,16,47,15.30
2018,10,20,16,48,15.30
2018,10,20,16,49,15.30
2018,10,20,16,50,15.30
2018,10,20,16,51,15.30
2018,10,20,16,52,15.30
2018,10,20,16,53,15.30
2018,10,20,16,54,15.30
2018,10,20,16,55,15.20
2018,10,20,16,56,15.20
2018,10,20,16,57,15.20
2018,10,20,16,58,15.20
2018,10,20,16,59,15.20
2018,10,20,17,00,15.20
2018,10,20,17,01,15.20
2018,10,20,17,02,15.20
2018,10,20,17,03,15.20
2018,10,20,17,04,15.20
2018,10,20,17,05,15.20
2018,10,20,17,06,15.20
2018,10,20,17,07,15.20
2018,10,20,17,08,15.20
2018,10,20,17,09,15.10
2018,10,20,17,10,15.10
2018,10,20,17,11,15.10
2018,10,20,17,12,15.00
2018,10,20,17,13,15.00
2018,10,20,17,14,15.00
2018,10,20,17,15,14.90
2018,10,20,17,16,14.90
2018,10,20,17,17,14.90
2018,10,20,17,18,14.90
2018,10,20,17,19,14.90
2018,10,20,17,20,14.90
2018,10,20,17,21,14.80
2018,10,20,17,22,14.80
2018,10,20,17,23,14.80
2018,10,20,17,24,14.80
2018,10,20,17,25,14.80
2018,10,20,17,26,14.80
2018,10,20,17,27,14.80
2018,10,20,17,28,14.80
2018,10,20,17,29,14.70
2018,10,20,17,30,14.70
2018,10,20,17,31,14.70
2018,10,20,17,32,14.70
2018,10,20,17,33,14.60
2018,10,20,17,34,14.60
2018,10,20,17,35,14.50
2018,10,20,17,36,14.40
2018,10,20,17,37,14.30
2018,10,20,17,38,14.30
2018,10,20,17,39,14.20
2018,10,20,17,40,14.10
2018,10,20,17,41,14.00
2018,10,20,17,42,14.00
2018,10,20,17,43,13.90
2018,10,20,17,44,13.80
2018,10,20,17,45,13.80
2018,10,20,17,46,13.70
2018,10,20,17,47,13.70
2018,10,20,17,48,13.70
2018,10,20,17,49,13.60
2018,10,20,17,50,13.60
2018,10,20,17,51,13.50
2018,10,20,17,52,13.50
2018,10,20,17,53,13.40
2018,10,20,17,54,13.40
2018,10,20,17,55,13.30
2018,10,20,17,56,13.30
2018,10,20,17,57,13.20
2018,10,20,17,58,13.20
2018,10,20,17,59,13.10
2018,10,20,18,00,13.00
2018,10,20,18,01,13.00
2018,10,20,18,02,12.90
2018,10,20,18,03,12.90
2018,10,20,18,04,12.80
2018,10,20,18,05,12.80
2018,10,20,18,06,12.80
2018,10,20,18,07,12.70
2018,10,20,18,08,12.70
2018,10,20,18,09,12.60
2018,10,20,18,10,12.60
2018,10,20,18,11,12.50
2018,10,20,18,12,12.50
2018,10,20,18,13,12.50
2018,10,20,18,14,12.40
2018,10,20,18,15,12.40
2018,10,20,18,16,12.30
2018,10,20,18,17,12.30
2018,10,20,18,18,12.20
2018,10,20,18,19,12.20
2018,10,20,18,20,12.20
2018,10,20,18,21,12.10
2018,10,20,18,22,12.10
2018,10,20,18,23,12.00
2018,10,20,18,24,12.00
2018,10,20,18,25,11.90
2018,10,20,18,26,11.90
2018,10,20,18,27,11.80
2018,10,20,18,28,11.80
2018,10,20,18,29,11.80
2018,10,20,18,30,11.70
2018,10,20,18,31,11.70
2018,10,20,18,32,11.70
2018,10,20,18,33,11.60
2018,10,20,18,34,11.60
2018,10,20,18,35,11.60
2018,10,20,18,36,11.50
2018,10,20,18,37,11.50
2018,10,20,18,38,11.50
2018,10,20,18,39,11.40
2018,10,20,18,40,11.40
2018,10,20,18,41,11.40
2018,10,20,18,42,11.30
2018,10,20,18,43,11.30
2018,10,20,18,44,11.30
2018,10,20,18,45,11.30
2018,10,20,18,46,11.30
2018,10,20,18,47,11.20
2018,10,20,18,48,11.20
2018,10,20,18,49,11.20
2018,10,20,18,50,11.20
2018,10,20,18,51,11.10
2018,10,20,18,52,11.10
2018,10,20,18,53,11.10
2018,10,20,18,54,11.10
2018,10,20,18,55,11.10
2018,10,20,18,56,11.00
2018,10,20,18,57,11.00
2018,10,20,18,58,11.00
2018,10,20,18,59,11.00
2018,10,20,19,00,10.90
2018,10,20,19,01,10.90
2018,10,20,19,02,10.90
2018,10,20,19,03,10.90
2018,10,20,19,04,10.90
2018,10,20,19,05,10.90
2018,10,20,19,06,10.90
2018,10,20,19,07,10.90
2018,10,20,19,08,10.80
2018,10,20,19,09,10.80
2018,10,20,19,10,10.80
2018,10,20,19,11,10.80
2018,10,20,19,12,10.80
2018,10,20,19,13,10.80
2018,10,20,19,14,10.80
2018,10,20,19,15,10.80
2018,10,20,19,16,10.80
2018,10,20,19,17,10.80
2018,10,20,19,18,10.80
2018,10,20,19,19,10.80
2018,10,20,19,20,10.80
2018,10,20,19,21,10.80
2018,10,20,19,22,10.80
2018,10,20,19,23,10.80
2018,10,20,19,24,10.80
2018,10,20,19,25,10.80
2018,10,20,19,26,10.80
2018,10,20,19,27,10.80
2018,10,20,19,28,10.80
2018,10,20,19,29,10.80
2018,10,20,19,30,10.80
2018,10,20,19,31,10.80
2018,10,20,19,32,10.70
2018,10,20,19,33,10.70
2018,10,20,19,34,10.70
2018,10,20,19,35,10.70
2018,10,20,19,36,10.70
2018,10,20,19,37,10.70
2018,10,20,19,38,10.70
2018,10,20,19,39,10.70
2018,10,20,19,40,10.70
2018,10,20,19,41,10.70
2018,10,20,19,42,10.60
2018,10,20,19,43,10.60
2018,10,20,19,44,10.60
2018,10,20,19,45,10.60
2018,10,20,19,46,10.60
2018,10,20,19,47,10.60
2018,10,20,19,48,10.60
2018,10,20,19,49,10.60
2018,10,20,19,50,10.60
2018,10,20,19,51,10.60
2018,10,20,19,52,10.60
2018,10,20,19,53,10.50
2018,10,20,19,54,10.50
2018,10,20,19,55,10.50
2018,10,20,19,56,10.50
2018,10,20,19,57,10.50
2018,10,20,19,58,10.50
2018,10,20,19,59,10.50
2018,10,20,20,00,10.50
2018,10,20,20,01,10.50
2018,10,20,20,02,10.50
2018,10,20,20,03,10.40
2018,10,20,20,04,10.50
2018,10,20,20,05,10.50
2018,10,20,20,06,10.50
2018,10,20,20,07,10.50
2018,10,20,20,08,10.50
2018,10,20,20,09,10.50
2018,10,20,20,10,10.50
2018,10,20,20,11,10.50
2018,10,20,20,12,10.50
2018,10,20,20,13,10.50
2018,10,20,20,14,10.50
2018,10,20,20,15,10.50
2018,10,20,20,16,10.50
2018,10,20,20,17,10.50
2018,10,20,20,18,10.50
2018,10,20,20,19,10.50
2018,10,20,20,20,10.50
2018,10,20,20,21,10.50
2018,10,20,20,22,10.50
2018,10,20,20,23,10.50
2018,10,20,20,24,10.50
2018,10,20,20,25,10.50
2018,10,20,20,26,10.50
2018,10,20,20,27,10.50
2018,10,20,20,28,10.50
2018,10,20,20,29,10.40
2018,10,20,20,30,10.40
2018,10,20,20,31,10.40
2018,10,20,20,32,10.40
2018,10,20,20,33,10.40
2018,10,20,20,34,10.40
2018,10,20,20,35,10.40
2018,10,20,20,36,10.40
2018,10,20,20,37,10.40
2018,10,20,20,38,10.40
2018,10,20,20,39,10.40
2018,10,20,20,40,10.40
2018,10,20,20,41,10.40
2018,10,20,20,42,10.40
2018,10,20,20,43,10.40
2018,10,20,20,44,10.30
2018,10,20,20,45,10.30
2018,10,20,20,46,10.30
2018,10,20,20,47,10.30
2018,10,20,20,48,10.30
2018,10,20,20,49,10.30
2018,10,20,20,50,10.30
2018,10,20,20,51,10.30
2018,10,20,20,52,10.30
2018,10,20,20,53,10.30
2018,10,20,20,54,10.30
2018,10,20,20,55,10.20
2018,10,20,20,56,10.20
2018,10,20,20,57,10.20
2018,10,20,20,58,10.20
2018,10,20,20,59,10.20
2018,10,20,21,00,10.20
2018,10,20,21,01,10.20
2018,10,20,21,02,10.10
2018,10,20,21,03,10.10
2018,10,20,21,04,10.10
2018,10,20,21,05,10.00
2018,10,20,21,06,10.00
2018,10,20,21,07,10.00
2018,10,20,21,08,10.10
2018,10,20,21,09,10.00
2018,10,20,21,10,10.00
2018,10,20,21,11,10.00
2018,10,20,21,12,10.00
2018,10,20,21,13,10.00
2018,10,20,21,14,10.00
2018,10,20,21,15,10.00
2018,10,20,21,16,10.00